Location: Boiro
(42.6475°N, 8.8834°W)
Time: 18:43:01
(UTC+01:00)

Transit 2A Rocket - Pass Details

Date: 07 December 2021
Orbit: 585 x 917 km, 66.7° (Epoch: 26 January)

Event Time Altitude Azimuth Distance (km) Brightness Sun altitude
Rises 19:01:40 0° 309° (NW) 3,523 8.9 -10.7°
Reaches altitude 10° 19:06:03 10° 280° (W) 2,525 8.7 -11.5°
Maximum altitude 19:08:01 12° 260° (W) 2,368 8.9 -11.8°
Drops below altitude 10° 19:09:57 10° 240° (WSW) 2,458 9.1 -12.1°
Sets 19:14:05 0° 210° (SSW) 3,303 9.1 -12.9°
